2020 TE6
ephemeris date magn radius delta ra dec elong phase
Today5 Sep 202630.01.006 AU1.842 AU09h23m+16°14'23.9°23.9°
2020 TE6 - 2026-09-05
astro.vanbuitenen.nl


 
-1 year
-1 month
-1 day
Now
+1 day
+1 month
+1 year

The interactive orbit chart above shows the body's path through the solar system and its position at the given date. Green and blue lines are shown perpendicular to the ecliptic plane: Green if the path is above the ecliptic plane, blue if it is below. (Left-click and drag to rotate the view; Right-click and drag to move the view; Use scroll wheel to zoom in our out.)

The orbital elements of 2020 TE6 are:

            e (Eccentricity)                : 0.5527534
            a (Semimajor axis)              : 2.0093182
            i (Inclination)                 : 1.70317
            Ω (Longitude of ascending node) : 24.78098
            ω (Argument of perihelion)      : 43.92721
            M (Mean anomaly)                : 341.37872
            Epoch                           : 2026 Jun 09

            L (Longitude of perihelion)     : 68.69554
            B (Latitude of perihelion)      : 1.18147
            P (Orbital period in years)     : 2.85            
        

The light curve chart below shows the estimated development of the minor planet's magnitude.


The all-sky chart below shows the path of the minor planet over the same period as the light curve. The current position is marked yellow.





The following chart shows the path of the minor planet in the next few days. The field of view is optimized for (~10x50) binoculars and finderscopes.




Ephemerides:
Date       Time       RA (2000)    DEC (2000)    delta   radius  elong  phase   PA    magn
2026-09-05 00:00 UT   09 23 51.9   +16 14 59     1.842    1.006   23.9   23.9   290   30.0 
2026-09-05 16:05 UT   09 26 28.3   +16 02 49     1.846    1.010   23.9   23.8   290   30.0 
2026-09-06 00:00 UT   09 27 44.9   +15 56 48     1.848    1.012   23.9   23.8   290   30.0 
2026-09-07 00:00 UT   09 31 35.6   +15 38 29     1.854    1.018   23.9   23.6   291   30.0 
2026-09-08 00:00 UT   09 35 24.0   +15 20 03     1.861    1.024   23.9   23.5   291   30.0 
2026-09-09 00:00 UT   09 39 10.2   +15 01 30     1.867    1.030   23.9   23.3   291   30.0 
2026-09-10 00:00 UT   09 42 54.1   +14 42 51     1.873    1.036   23.9   23.2   291   30.0 
2026-09-11 00:00 UT   09 46 35.8   +14 24 07     1.880    1.043   23.9   23.1   292   30.1 
2026-09-12 00:00 UT   09 50 15.3   +14 05 18     1.886    1.049   24.0   22.9   292   30.1 
2026-09-13 00:00 UT   09 53 52.6   +13 46 25     1.892    1.056   24.0   22.8   292   30.1 


    Terminology:
            
    delta:  distance between minor planet and earth in AU
    radius: distance between minor planet and sun in AU
    magn:   magnitude (brightness) estimate    
    ra:     right ascension in hours (24h = 360deg)
    dec:    declination in degrees
    elong:  elongation in degrees (angle sun-earth-minor planet)    
    phase:  phase angle in degrees (angle sun-minor planet-earth)        
    AU:     Astronomical Unit (mean distance between earth and sun: 149597870.7 km
    

Orbital elements provided by the MPC (Minor Planet Center).
Calculations by a modified version of AAPlus, a C# implementation of the AA+ project by PJ Naughter from the algorithms presented in the book "Astronomical Algorithms" by Jean Meeus.
NGC2000 dso catalog and star labels from VizieR as provided by the Strasbourg astronomical Data Center.
Tycho2 catalog from the ESO archive.